Regional Weather Roundup
Issued by NWS Sioux Falls, SD

Home | Current Version | Previous Version | Text Only | Print | Product List | Glossary On
Versions: 1 2 3 4 5 6 7 8 9 10 11 12 13 14 15 16 17 18 19 20 21 22 23 24 25 26 27 28 29 30 31 32 33 34 35 36 37 38 39 40 41 42 43 44 45 46 47 48 49 50
000
ASUS43 KFSD 201810
RWRFSD

WEATHER ROUNDUP FOR SE SOUTH DAKOTA/SW MINNESOTA/NW IOWA
NATIONAL WEATHER SERVICE SIOUX FALLS SD
1200 PM CST FRI JAN 20 2017

NOTE: "FAIR" INDICATES FEW OR NO CLOUDS BELOW 12,000 FEET WITH NO
SIGNIFICANT WEATHER AND OR OBSTRUCTIONS TO VISIBILITY.


SDZ038>040-050-052>070-201900-
SOUTHEAST SOUTH DAKOTA

CITY           SKY/WX    TMP DP  RH WIND       PRES   REMARKS
BROOKINGS      CLOUDY    37  36  96 SE17      29.44F FOG
CHAMBERLAIN    SUNNY     32  32 100 CALM      29.37F
6HR MIN TEMP:  28; 6HR MAX TEMP:  32;

HURON          CLOUDY    37  36  96 S13       29.39F
6HR MIN TEMP:  36; 6HR MAX TEMP:  37;

MADISON        CLOUDY    37  37 100 S15         N/A
MITCHELL       CLOUDY    40  37  89 S15       29.41F
6HR MIN TEMP:  37; 6HR MAX TEMP:  40;

SIOUX FALLS    CLOUDY    40  39  97 S16G23    29.47F FOG
6HR MIN TEMP:  37; 6HR MAX TEMP:  40;

WINNER         FAIR      40  28  62 S8        29.36F
YANKTON        CLOUDY    43  39  87 S13       29.45F
$$

MNZ071-072-080-081-089-090-097-098-201900-
SOUTHWEST MINNESOTA

CITY           SKY/WX    TMP DP  RH WIND       PRES   REMARKS
FAIRMONT       CLOUDY    35  34  96 S10       29.56F WCI  27
JACKSON        FOG       34  34 100 SE6       29.54F VSB 1   WCI  29
LUVERNE        CLOUDY    36  36 100 SE9       29.50F FOG
MARSHALL       CLOUDY    37  36  96 SE13      29.51F
6HR MIN TEMP:  34; 6HR MAX TEMP:  37;

MONTEVIDEO     CLOUDY    36  36 100 S9        29.54F FOG
PIPESTONE      FOG       37  37 100 S10       29.47F VSB 1/4
REDWOOD FALLS  CLOUDY    35  34  96 SE10      29.53F FOG     WCI  27
TRACY          CLOUDY    38  38 100 SE9       29.52F FOG
WINDOM         CLOUDY    37  37 100 E6        29.53F FOG
WORTHINGTON    CLOUDY    35  35 100 MISG        N/A  FOG
$$

IAZ001>003-012>014-020>022-031-032-NEZ013-014-SDZ071-201900-
NORTHWEST IOWA

CITY           SKY/WX    TMP DP  RH WIND       PRES   REMARKS
CHEROKEE       CLOUDY    39  39 100 S5        29.53F FOG
DENISON        PTSUNNY   39  39 100 SE8       29.51F
ESTHERVILLE    FOG       34  34 100 SE9       29.54F VSB 1/4 WCI  27
LE MARS        CLOUDY    41  41 100 SE13      29.51F FOG
ORANGE CITY    CLOUDY    37  37 100 SE6       29.50F FOG
SHELDON        CLOUDY    37  37 100 SE14      29.50F FOG
SIOUX CITY     CLOUDY    42  41  96 SE8       29.50F FOG
6HR MIN TEMP:  38; 6HR MAX TEMP:  42;

SPENCER        FOG       38  38 100 SE9       29.53F VSB 1/2
6HR MIN TEMP:  34; 6HR MAX TEMP:  38;

STORM LAKE     FOG       37  37 100 SE7       29.53F VSB<1/4
$$

ABBREVIATIONS USED IN REMARKS
   TC - TEMPERATURE IN CELSIUS
  WCI - WIND CHILL INDEX
   HX - HEAT INDEX
  VSB - VISIBILITY





USA.gov is the U.S. government's official web portal to all federal, state and local government web resources and services.